Regional Weather Roundup
Issued by NWS

Home | Current Version | Previous Version | Text Only | Print | Product List | Glossary Off
Versions: 1 2 3 4 5 6 7 8 9 10 11 12 13 14 15 16 17 18 19 20 21 22 23 24 25 26 27 28 29 30 31 32 33 34 35 36 37 38 39 40 41 42 43 44 45 46 47 48 49 50

000
ASUS43 KMKX 200700
RWRWI

WISCONSIN REGIONAL WEATHER ROUNDUP
NATIONAL WEATHER SERVICE MILWAUKEE/SULLIVAN WI
200 AM CDT FRI APR 20 2018

NOTE: "FAIR" INDICATES FEW OR NO CLOUDS BELOW 12,000 FEET WITH NO
SIGNIFICANT WEATHER AND/OR OBSTRUCTIONS TO VISIBILITY.

WIZ001-002-006>008-014>016-023>028-200800-
NORTHWEST WISCONSIN

CITY           SKY/WX    TMP DP  RH WIND       PRES   REMARKS
SUPERIOR ARPT  FAIR      34  18  51 SW8       30.42R WCI  27
ASHLAND        FAIR      37  15  40 SW9       30.41R WCI  30
HAYWARD        FAIR      25  18  74 CALM      30.44R
SIREN          FAIR      34  24  65 SW3       30.44S
CUMBERLAND     FAIR      30  18  59 CALM      30.44R
RICE LAKE      FAIR      27  25  91 CALM      30.46R
CHETEK         FAIR      26  22  85 CALM      30.46R
LADYSMITH      FAIR      26  20  77 CALM      30.45R
EAU CLAIRE     NOT AVBL
MENOMONIE      FAIR      30  23  74 CALM      30.46R
NEW RICHMOND   FAIR      27  22  80 CALM      30.46S
OSCEOLA        FAIR      28  23  79 E3        30.49R
$$

WIZ003>005-009-010-017-018-200800-
NORTH CENTRAL WISCONSIN

CITY           SKY/WX    TMP DP  RH WIND       PRES   REMARKS
MANITOWISH WTR FAIR      21  14  76 CALM      30.40S
ARBOR VITAE    FAIR      25  15  67 CALM      30.40S
WOODRUFF       FAIR      25  15  67 CALM      30.40S
RHINELANDER    FAIR      21  11  65 W3        30.40S
EAGLE RIVER    FAIR      21  13  73 CALM      30.40S
LAND O LAKES   FAIR      17  11  78 CALM      30.41S
PHILLIPS       FAIR      21  19  89 CALM      30.41S
TOMAHAWK       FAIR      20  13  76 CALM      30.42S
MEDFORD        FAIR      25  17  73 NE5       30.42S WCI  19
MERRILL          N/A     24  17  72 CALM      30.43F
$$

WIZ029-030-035-036-043>047-200800-
CENTRAL WISCONSIN

CITY           SKY/WX    TMP DP  RH WIND       PRES   REMARKS
WAUSAU         FAIR      28  23  81 NW6       30.41S WCI  22
MOSINEE        FAIR      32  21  64 NW6       30.43S WCI  26
MARSHFIELD     FAIR      29  16  58 NW7       30.41S WCI  22
STEVENS POINT  FAIR      24  18  80 CALM      30.44R
WAUPACA        FAIR      37  19  48 CALM      30.43S
WAUTOMA        FAIR      34  18  52 W3        30.44S
WISC RAPIDS    FAIR      25  17  72 CALM      30.44S
CAMP DOUGLAS   FAIR      24  21  91 CALM      30.44S
$$

WIZ011>013-019>022-031-037>040-048>050-200800-
NORTHEAST WISCONSIN

CITY           SKY/WX    TMP DP  RH WIND       PRES   REMARKS
ANTIGO         FAIR      23  15  71 CALM      30.41S
SHAWANO        FAIR      29  22  74 CALM      30.42S
OCONTO         FAIR      24  19  78 CALM      30.42S
STURGEON BAY   FAIR      32  14  47 S5        30.43R WCI  27
GREEN BAY      FAIR      29  22  75 CALM      30.42S
MANITOWOC      FAIR      27  23  85 CALM      30.43S
APPLETON       FAIR      36  18  48 NW3       30.40R
CLINTONVILLE   FAIR      28  20  72 CALM      30.43R
OSHKOSH        FAIR      33  19  56 W3        30.43R
$$

WIZ032>034-041-042-053>061-200800-
SOUTHWEST WISCONSIN

CITY           SKY/WX    TMP DP  RH WIND       PRES   REMARKS
LA CROSSE      FAIR      30  26  85 CALM      30.47R
SPARTA         FAIR      22  21  96 CALM      30.47S
VIROQUA        FAIR      34  23  64 W3        30.45R
BOSCOBEL       FAIR      26  23  88 CALM      30.48S
PRAIRIE DU CHI FAIR      28  24  83 CALM      30.48S
PLATTEVILLE    FAIR      34  27  73 CALM      30.46S
$$

WIZ056-057-062-063-064-067-068-200800-
SOUTH CENTRAL WISCONSIN

CITY           SKY/WX    TMP DP  RH WIND       PRES   REMARKS
REEDSBURG      FAIR      25  24  98 CALM      30.46R
BARABOO/DELLS  FAIR      26  21  80 S5        30.45R WCI  21
LONE ROCK      NOT AVBL
MINERAL POINT  FAIR      36  23  60 CALM      30.45R
MADISON        FAIR      26  22  84 CALM      30.45R
MIDDLETON      FAIR      28  23  81 CALM      30.45S
WATERTOWN      FAIR      26  22  87 CALM      30.44S
MONROE         FAIR      37  21  52 NW9       30.44S WCI  31
JANESVILLE     FAIR      32  32 100 CALM      30.45S
$$

WIZ051-052-058>065-066-070>072-200800-
SOUTHEAST WISCONSIN

CITY           SKY/WX    TMP DP  RH WIND       PRES   REMARKS
MILWAUKEE      FAIR      39  25  57 NW6       30.43R WCI  35
WAUKESHA       FAIR      32  23  69 W8        30.45R WCI  25
MILWAUKEE/TIMM FAIR      34  23  64 W5        30.43S WCI  30
RACINE         FAIR      36  25  64 W7        30.44S WCI  30
BURLINGTON     FAIR      30  23  75 CALM      30.44S
KENOSHA        FAIR      35  25  66 W6        30.43R WCI  30
FOND DU LAC    FAIR      27  20  75 S6        30.43R WCI  20
SHEBOYGAN      FAIR      32  23  69 CALM      30.42R
WEST BEND      FAIR      32  27  80 CALM      30.42S
JUNEAU         FAIR      29  23  79 CALM      30.44S
$$

LSZ147-162-200800-
LAKE SUPERIOR

STATION/POSITION TIME  TEMP    WIND        PRES    WAVE
                       AIR SEA DIR/SP/G            HT/PER
                 (UTC) (F)     (DEG/KT/KT) (MB)    (FT/S)
DEVILS ISLAND    0600   46     230/  8/  9 1029.7R
SAXON HARBOR     0640   29     190/  3/  6 1028.8S
$$

LMZ867-665-643>646-200800-
LAKE MICHIGAN

STATION/POSITION TIME  TEMP    WIND        PRES    WAVE
                       AIR SEA DIR/SP/G            HT/PER
                 (UTC) (F)     (DEG/KT/KT) (MB)    (FT/S)
NORTHPORT PIER   0640   30                 1029.8R
KEWAUNEE LAKESHO 0624   30     290/  5/  5 1029.2
SHEBOYGAN LAKESH 0600   39      20/  3/  5 1030.5R
PORT WASHINGTON  0640   40     290/  7/ 11 1030.8R
MILWAUKEE LAKESH 0630   42     300/  8/  9   N/A
KENOSHA   LAKESH 0600   40                 1030.1
$$

TC  - TEMPERATURE IN CELSIUS
VSB - VISIBILITY IN STATUTE MILES
WCI - WIND CHILL INDEX
HX  - HEAT INDEX





USA.gov is the U.S. government's official web portal to all federal, state and local government web resources and services.